www.pogodaiklimat.ru

Погода и климат >> Архив погоды >> Корея >> Пэннёндо


ПОГОДА на Пэннёндо

  • Прогноз погоды на Пэннёндо
  • Монитор погоды на Пэннёндо

АРХИВ ПОГОДЫ на Пэннёндо

Время (UTC), дата Ветер
(напр.,м/с)
 
Видим.   Явления Облачность Т
(С)
Тd
(С)
f
(%)
Тe
(С)
Тes
(С)
Комфортность P
(гПа)
Po
(гПа)
Тmin
(С)
Tmax
(С)
R
(мм)
R24
(мм)
S
(см)
00 10.09 В 6 16 км в посл. час дождь 9/8 300 м
[Sc As op]
+22.9 +22.3 96 +31 +31 очень
душно
1010.5 1006.4 +21.8 0.0
03 10.09 В 7 23 км слаб. дождь 10/10 200 м
[Sc As op]
+21.5 +20.4 93 +27 +27 душно 1010.9 1006.7
06 10.09 В 6 16 км слаб. дождь 10/8 600 м
[Sc As op]
+21.0 +20.4 96 +26 +26 душно 1009.7 1005.5 2
09 10.09 СВ 6 27 км 9/9 300 м
[Sc Ac trans]
+21.7 +19.0 85 +27 +27 душно 1009.8 1005.6
12 10.09 С 5 40 км 8/0
[Ac trans]
+21.8 +19.5 87 +27 +27 душно 1011.6 1007.4 +23.0 2
15 10.09 СЗ 2 23 км 9/0
[Ci sp]
+21.2 +19.8 92 +26 +26 душно 1012.1 1007.9
18 10.09 С 2 13 км 4/0
[]
+21.1 +20.5 96 +26 +26 душно 1012.9 1008.7
21 10.09 С 2 16 км 5/0
[Ci fib]
+20.6 +19.7 95 +26 +26 душно 1013.7 1009.5
00 11.09 С 5 19 км 8/0
[Ci sp]
+21.9 +21.2 96 +28 +31 душно 1014.8 1010.6 +20.3 0.0
03 11.09 С 5 30 км 3/0
[Ci fib]
+24.0 +19.7 77 +29 +36 душно 1014.9 1010.8
06 11.09 С 4 29 км 8/0
[Ci sp]
+23.0 +19.9 83 +30 +36 очень
душно
1013.6 1009.5
09 11.09 СЗ 4 21 км 8/0
[Ci fib]
+21.8 +20.6 93 +28 +28 душно 1014.0 1009.8
12 11.09 З 3 26 км 9/9 1000 м
[Sc]
+21.4 +20.5 95 +27 +27 душно 1014.5 1010.3 +25.5
15 11.09 ЮВ 1 20 км 9/0
[Ci sp]
+21.4 +20.5 95 +27 +27 душно 1014.7 1010.5
18 11.09 В 3 40 км 8/0
[Ac trans]
+21.4 +20.3 93 +27 +27 душно 1014.0 1009.8
21 11.09 В 3 35 км 9// 600 м
[Sc]
+21.1 +19.5 91 +26 +26 душно 1014.5 1010.3
00 12.09 В 9 14 км слаб. дождь 10/8 600 м
[Sc As op]
+20.8 +17.6 82 +24 +24 комфорт 1015.5 1011.3 +20.5 0.0
03 12.09 В 4 40 км слаб. дождь 10/10 600 м
[Sc As op]
+21.5 +18.6 84 +26 +26 душно 1015.2 1011.0
06 12.09 В 5 28 км в посл. час дождь 10/10 200 м
[Sc As op]
+19.8 +19.1 96 +23 +23 комфорт 1013.5 1009.3 0.1
09 12.09 В 5 21 км 9// 300 м
[Sc]
+19.6 +18.2 92 +22 +22 комфорт 1013.5 1009.3
12 12.09 В 11 40 км в посл. час дождь 10/10 300 м
[Sc]
+19.2 +17.5 90 +20 +20 1014.3 1010.1 +21.9 0.1
15 12.09 ЮВ 6 30 км 9// 300 м
[Sc]
+18.8 +17.8 94 +20 +20 1013.7 1009.5
18 12.09 В 4 35 км 9/9 200 м
[Sc]
+19.1 +18.2 95 +21 +21 комфорт 1013.0 1008.8
21 12.09 ЮВ 4 40 км 9// 200 м
[Sc]
+19.3 +18.1 93 +21 +21 комфорт 1012.8 1008.6
00 13.09 ЮВ 13 40 км 9/9 300 м
[Sc]
+20.9 +18.8 88 +24 +24 комфорт 1012.8 1008.6 +18.7 0.0
03 13.09 35 км н/о +21.2 +19.1 88 +26 +26 душно 1012.1 1007.9
06 13.09 ЮВ 5 40 км 5/3 600 м
[Sc Ac trans]
+22.5 +19.4 83 +29 +32 очень
душно
1010.7 1006.6
09 13.09 Ю 4 35 км 9// 1000 м
[Sc]
+21.3 +19.7 91 +26 +26 душно 1010.6 1006.4
12 13.09 Ю 6 13 км в посл. час дождь 10/8 100 м
[Sc As op]
+21.0 +20.9 99 +26 +26 душно 1011.2 1007.0 +23.3 0.0
15 13.09 Ю 3 9000 м слаб. дождь 10// 200 м
[Frnb As op]
+21.3 +21.1 99 +27 +27 душно 1010.4 1006.2
18 13.09 З 6 4400 м слаб. дождь 10/10 100 м
[Frnb Ns]
+21.0 +20.9 99 +26 +26 душно 1009.6 1005.4 5
21 13.09 С 3 22 км слаб. дождь 10/10 100 м
[Sc As op]
+20.1 +20.0 99 +24 +24 комфорт 1009.6 1005.4
00 14.09 С 7 28 км 9/8 200 м
[Sc As op]
+20.7 +20.2 97 +25 +25 комфорт 1011.0 1006.8 +20.0 7
03 14.09 30 км н/о +21.7 +19.8 89 +27 +27 душно 1010.7 1006.5
06 14.09 С 8 40 км ясно +21.3 +16.0 72 +25 +27 комфорт 1009.7 1005.5
09 14.09 СЗ 4 40 км ясно +21.0 +16.8 77 +25 +25 комфорт 1010.5 1006.3
12 14.09 С 9 40 км ясно +20.6 +17.0 80 +23 +23 комфорт 1011.6 1007.4 +22.1 0.0
15 14.09 С 3 35 км 8/0
[Ac trans]
+20.5 +18.2 87 +25 +25 комфорт 1011.2 1007.0
18 14.09 С 2 50 км 8/0
[Ac trans]
+20.0 +17.0 83 +23 +23 комфорт 1010.5 1006.3
21 14.09 С 3 45 км 4/0
[Ci fib]
+19.5 +17.9 90 +22 +22 комфорт 1011.2 1007.0
00 15.09 С 5 45 км 6/0
[Cc]
+21.6 +17.3 77 +26 +28 душно 1011.6 1007.4 +19.4 0.0
03 15.09 С 5 45 км 3/0
[Ci sp]
+22.5 +16.9 71 +27 +34 душно 1011.0 1006.9
06 15.09 СЗ 3 50 км 5/0
[Ci sp]
+22.6 +18.3 77 +28 +35 душно 1009.5 1005.4
09 15.09 СЗ 5 40 км 9/0
[Ac trans Ci sp]
+20.3 +17.8 86 +24 +24 комфорт 1009.6 1005.4
12 15.09 С 9 50 км 8/0
[Ac trans]
+20.0 +16.6 81 +22 +22 комфорт 1011.1 1006.9 +22.9
15 15.09 С 5 45 км 9/0
[Ac trans]
+20.2 +14.5 70 +22 +22 комфорт 1010.6 1006.4
18 15.09 СЗ 3 50 км 8/0
[Ac trans]
+20.1 +16.5 80 +23 +23 комфорт 1009.8 1005.6
21 15.09 СЗ 2 45 км 8/0
[Ac trans]
+19.9 +18.0 89 +23 +23 комфорт 1010.7 1006.5
00 16.09 С 3 35 км 4/0
[Ci fib]
+22.6 +20.1 86 +29 +33 очень
душно
1011.6 1007.5 +19.5
03 16.09 С 5 35 км ясно +24.0 +17.9 69 +28 +35 душно 1011.2 1007.1
06 16.09 С 7 30 км 3/0
[Ac trans]
+22.9 +19.6 82 +29 +31 очень
душно
1010.4 1006.3
09 16.09 С 12 27 км 3/0
[Ci fib]
+21.7 +18.4 82 +26 +26 душно 1011.1 1006.9
12 16.09 СЗ 3 28 км ясно +20.3 +17.6 84 +24 +24 комфорт 1012.2 1008.0 +24.8
15 16.09 С 2 40 км 3/0
[Ci fib]
+20.3 +17.1 82 +24 +24 комфорт 1012.5 1008.3
18 16.09 С 3 35 км 5/0
[Ci fib]
+19.8 +18.2 90 +23 +23 комфорт 1012.9 1008.7
21 16.09 С 2 45 км 3/0
[Ci fib]
+18.8 +15.8 83 +20 +20 1013.6 1009.4

 

Местоположение метеостанции Пэннёндо (Корея): широта 37.97 долгота 124.63 высота над уровнем моря 158 м.

В архиве по умолчанию представлена погода на Пэннёндо за последнюю неделю. Архивные данные за месяц целиком и за предыдущие месяцы, начиная с января 2011 года, Вы можете получить, выбрав интересующий диапазон дат из раскрывающегося списка и нажав кнопку "Ввод!".


*Определитесь, кто Вы:
робот инопланетянин человек

Внимание! Время в таблицах - всемирное. Для получения местного времени необходимо прибавить поправку, которая равна 9 ч.

Смотрите также архив погоды в соседних городах и на ближайших метеорологических станциях:

Погода в Рёнджёне (КНДР) (30 км)
Погода в Хэджу (КНДР) (94 км)
Погода в Нампхо (КНДР) (106 км)
Погода в Саривоне (КНДР) (116 км)
Погода в Пхеньяне (КНДР) (155 км)
Погода в Кэсоне (КНДР) (169 км)
Погода в Сингяе (КНДР) (176 км)
Погода в Чэнгшантоу (Шаньдун, Китай) (183 км)
Погода в Инчхоне (Корея) (185 км)
Погода в Мунсане (Корея) (187 км)

Пояснения к столбцам:

Ветер - указаны скорость ветра в м/с - средняя за 10 мин, порывы в срок и между сроками (в фигурных скобках) и направление, откуда дует ветер: С - северный, СВ - северо-восточный, В - восточный, ЮВ - юго-восточный, Ю - южный, ЮЗ - юго-западный, З - западный, СЗ - северо-западный.
Видимость - горизонтальная дальность видимости в метрах или километрах. При видимости от 1 до 10 км при отсутствии осадков обычно наблюдается дымка, при ухудшении видимости до 1 км и менее - туман. В сухую погоду видимость может ухудшаться дымом, пылью или мглою.
Явления - указаны атмосферные явления, наблюдавшиеся в срок или в последний час перед сроком; фигурными скобками обозначены явления, наблюдавшиеся между сроками (за 1-3 часа до срока); квадратными скобками обозначены град или гололедные отложения с указанием их диаметра в мм.
Облачность - указаны через наклонную черту общая и нижняя облачность в баллах и высота нижней границы облаков в метрах; квадратными скобками обозначены формы облаков: Ci - перистые, Cs - перисто-слоистые, Cc - перисто-кучевые, Ac - высококучевые, As - высокослоистые, Sc - слоисто-кучевые, Ns - слоисто-дождевые, Cu - кучевые, Cb - кучево-дождевые. Подробнее классификацию облаков см. в Атласе облаков (PDF).
T - Температура воздуха - температура, измеренная на высоте 2 м над землей.
Td - Температура точки росы - температура, при понижении до которой содержащийся в воздухе водяной пар достигнет насыщения.
f - Относительная влажность воздуха - влажноcть воздуха, измеренная на высоте 2 м над землей.
Te - Эффективная температура - температура, которую ощущает одетый по сезону человек в тени. Характеристика душности погоды. При расчете учитывается влияние влажности воздуха и скорости ветра на теплоощущения человека.
Tes - Эффективная температура на солнце - температура, которую ощущает человек, с поправкой на солнечный нагрев. Характеристика знойности погоды. Зависит от высоты солнца над горизонтом, облачности и скорости ветра. Ночью, в пасмурную погоду, а также при ветре 12 м/с и более поправка равна нулю.
P - Атмосферное давление - приведенное к уровню моря атмосферное давление.
Po - Атмосферное давление - измеренное на уровне метеостанции атмосферное давление.
Tmin - Минимальная температура - минимум температуры воздуха на высоте 2 м над землей.
Tmax - Максимальная температура - максимум температуры воздуха на высоте 2 м над землей.
R - Количество осадков - Количество выпавших осадков за период времени, мм. При наведении курсора мыши на число - период времени, за который выпало указанное количество осадков.
R24 - Количество осадков - Количество выпавших осадков за 24 часа, мм.
S - Снежный покров - Высота снежного покрова, см. При наведении курсора мыши на число - состояние снежного покрова и степень покрытия местности в баллах.